Location: Tamazert
(32.6352°N, 5.2072°W)
Time: 23:23:19
(UTC+00:00)

Cosmos 2184 Rocket - Pass Details

Date: 22 May 2022
Orbit: 958 x 1003 km, 82.9° (Epoch: 24 June)

Event Time Altitude Azimuth Distance (km) Brightness Sun altitude
Rises 03:22:11 0° 347° (NNW) 3,688 7.4 -21.0°
Reaches altitude 10° 03:24:47 10° 342° (NNW) 2,730 6.6 -20.6°
Maximum altitude 03:30:44 49° 269° (W) 1,239 4.2 -19.7°
Enters shadow 03:33:11 32° 217° (SW) 1,587 4.6 -19.3°
